Regional Weather Roundup
Issued by NWS Portland, ME

Home | Current Version | Previous Version | Text Only | Print | Product List | Glossary On
Versions: 1 2 3 4 5 6 7 8 9 10 11 12 13 14 15 16 17 18 19 20 21 22 23 24 25 26 27 28 29 30 31 32 33 34 35 36 37 38 39 40 41 42 43 44 45 46 47 48 49 50
000
ASUS41 KGYX 231610
RWRGYX
WEATHER ROUNDUP FOR MAINE AND NEW HAMPSHIRE
NATIONAL WEATHER SERVICE GRAY ME
1200 PM EDT SAT MAY 23 2015

MEZ002-005-006-010-012-015-018-020-021-024-026-027-029-231700-
MAINE

CITY           SKY/WX    TMP DP  RH WIND       PRES   REMARKS
PORTLAND       MOSUNNY   55  22  27 NW15G26   30.24F
BAR HARBOR     CLOUDY    50  25  37 NW13G24   30.13F
WISCASSET      MOSUNNY   54  21  27 VRB7G17   30.21S
ROCKLAND       MOSUNNY   52  21  30 NW16G28   30.17R
FRYEBURG       SUNNY     55  16  21 W8G17     30.24S
LEWISTONAUBURN SUNNY     52  19  28 NW16G25   30.22S
AUGUSTA        SUNNY     51  19  28 NW13G30   30.19S
WATERVILLE     MOSUNNY   52  21  30 W18G28    30.15S
BANGOR         PTSUNNY   50  24  36 NW23G30   30.14S
GREENVILLE       N/A     44  18  35 NW10G23   30.09S
MILLINOCKET    PTSUNNY   50  24  36 NW13G26   30.10S
HOULTON        PTSUNNY   46  29  51 NW15G29   30.04R
PRESQUE ISLE   PTSUNNY   46  27  46 W21G33    30.02S
FRENCHVILLE    LGT RAIN  45  23  42 W25G36    29.98R
CARIBOU        LGT RAIN  46  24  42 NW15G24   29.99S
$$

NHZ002-005-008-009-011-012-014-231700-
NEW HAMPSHIRE

CITY           SKY/WX    TMP DP  RH WIND       PRES   REMARKS
PORTSMOUTH     MOSUNNY   56  20  24 W13G24    30.27S
ROCHESTER      SUNNY     54  20  26 NW14G25   30.26S
NASHUA         SUNNY     55  19  24 NW10G18   30.32S
MANCHESTER     SUNNY     54  17  23 NW10      30.29S
CONCORD        SUNNY     56  18  22 NW14G23   30.29S
LACONIA        SUNNY     52  19  28 W9G25     30.26S
PLYMOUTH       FAIR      51  27  38 W16G25    30.28S
BERLIN         SUNNY     49  16  26 W8G29     30.22S
WHITEFIELD     SUNNY     49  20  31 W18G25    30.25S
JAFFREY        SUNNY     51  19  28 NW13G20   30.32R
KEENE          SUNNY    N/A N/A N/A W14       30.33S
LEBANON        SUNNY     54  20  26 NW14G23   30.30S
MT WASHINGTON  MOSUNNY   18  12  79 NW55G64     N/A  WCI  -7
$$

VTZ005-007-008-231700-
VERMONT

CITY           SKY/WX    TMP DP  RH WIND       PRES   REMARKS
ST JOHNSBURY     N/A     51  21  30 MISG      30.27R
MONTPELIER     SUNNY     47  24  40 NW12G21   30.33S
BURLINGTON     MOSUNNY   53  22  29 NW10      30.32F
$$

MAZ007-012-024-CTZ003-RIZ002-NYZ038-NYZ072-231700-
SOUTHERN NEW ENGLAND AND NY

CITY           SKY/WX    TMP DP  RH WIND       PRES   REMARKS
BOSTON         MOSUNNY   56  19  23 NW15G22   30.32F
WORCESTER      SUNNY     51  19  28 NW17      30.32S
NANTUCKET      SUNNY     54  25  32 NW14G26   30.35R
PROVIDENCE     SUNNY     57  25  29 W18G24    30.35S
HARTFORD       SUNNY     58  24  27 W9        30.36S
ALBANY         SUNNY     54  23  30 W12       30.40F
NEW YORK CITY  MOSUNNY   58  25  28 NW14G20   30.42S
$$

ANZ081-ANZ082-ANZ150-NHZ014-MEZ023>029-231700-
COASTAL MARINE OBSERVATIONS

STATION/POSITION TIME  TEMP    WIND        PRES    WAVE
                       AIR SEA DIR/SP/G            HT/PER
                 (UTC) (F)     (DEG/KT/KT) (MB)    (FT/S)
MOUNT DESERT ROC 1600   45     280/ 19/ 21   N/A
MATINICUS ROCK   1600   46     290/ 18/ 20   N/A
ISLE OF SHOALS   1600   50     290/ 16/ 18   N/A
JEFFREYS LEDGE   1503      47                N/A     4/ 5
CASHES LEDGE BUO 1550   46 47                N/A
GEORGES BANK BUO 1550   47 47  320/ 16/ 19   N/A     5/ 5
$$

.............KEY..............
   WCI - WIND CHILL
   TC  - TEMPERATURE IN CELSIUS
   VSB - VISIBILITY IN MILES
   HX  - HEAT INDEX
   FAIR- INDICATES FEW OR NO CLOUDS BELOW 12,000 FT, WITH NO
         SIGNIFICANT WEATHER AND/OR OBSTRUCTIONS TO VISIBILITY.





USA.gov is the U.S. government's official web portal to all federal, state and local government web resources and services.